{"data":{"norad_id":66424,"epoch":"2026-09-20T00:59:10.976928Z","epoch_age_seconds":132788,"freshness":"FRESH","line1":"1 66424U 25259C   26263.04109927  .00011138  00000+0  41356-3 0  9991","line2":"2 66424  43.0033 256.8628 0001578 279.8214  80.2460 15.27587317 49210","mean_motion":15.27587317,"eccentricity":0.0001578,"inclination_deg":43.0033,"raan_deg":256.8628,"arg_perigee_deg":279.8214,"mean_anomaly_deg":80.246,"bstar":0.00041356,"rev_number":4921,"period_min":94.266297184765,"perigee_km":481.94449468822,"apogee_km":484.10987810544,"semimajor_km":6861.1641863968,"source":"CELESTRAK","updated_at":"2026-09-21T09:00:35.906145Z"}}